Hourly Data Report for August 06, 2017

PITT MEADOWS CS
BRITISH COLUMBIA

49°12'29.964" N
122°41'24.076" W
5.00 m
1106178
71775
WMM

Download Data

Hourly Data (August 2017)
Hourly Data Report for August 6, 2017
TIME
LST
Temp Definition
°C
Dew Point Definition
°C
Rel Hum Definition
%
Precip. Amount Definition
mm

Wind Dir Definition
10's deg

Wind Spd Definition
km/h
Visibility Definition
km
Stn Press Definition
kPa
Hmdx Definition


Wind Chill Definition


Weather Definition


00:00 16.5 14.4 87 0.0 0 1   101.30     LegendNANA
01:00 14.7 12.7 87 0.0 15 1   101.30     LegendNANA
02:00 14.9 13.4 91 0.0   0   101.31     LegendNANA
03:00 15.1 14.0 93 0.0   0   101.33     LegendNANA
04:00 14.3 13.2 93 0.0 11 1   101.36     LegendNANA
05:00 13.9 12.9 94 0.0 12 1   101.38     LegendNANA
06:00 14.4 13.2 93 0.0 12 1   101.42     LegendNANA
07:00 16.4 14.5 88 0.0 9 2   101.43     LegendNANA
08:00 18.3 15.0 81 0.0 0 1   101.42     LegendNANA
09:00 19.6 15.5 77 0.0 22 4   101.42     LegendNANA
10:00 22.6 15.7 65 0.0 26 3   101.41 27   LegendNANA
11:00 24.9 16.6 60 0.0 20 4   101.38 30   LegendNANA
12:00 26.3 15.9 53 0.0 24 5   101.35 31   LegendNANA
13:00 27.0 14.8 47 0.0 26 10   101.32 31   LegendNANA
14:00 27.7 15.4 47 0.0 25 9   101.30 32   LegendNANA
15:00 28.0 15.0 45 0.0 26 8   101.26 32   LegendNANA
16:00 27.7 15.2 46 0.0 25 10   101.21 32   LegendNANA
17:00 27.4 16.8 52 0.0 22 5   101.20 33   LegendNANA
18:00 25.6 16.3 56 0.0 19 7   101.20 30   LegendNANA
19:00 23.8 16.0 62 0.0 19 4   101.20 28   LegendNANA
20:00 21.0 15.9 72 0.0 13 2   101.23 26   LegendNANA
21:00 19.3 15.2 77 0.0 13 2   101.28     LegendNANA
22:00 18.8 15.2 80 0.0 10 3   101.34     LegendNANA
23:00 17.8 14.7 82 0.0 12 2   101.37     LegendNANA

Notes on Data Quality.

Legend

  • E = Estimated
  • M = Missing
  • NA = Not Available*
  • [empty] = Indicates an unobserved value
Date modified: